Imperial, NE

3:50 AM MDT on May 25, 2017 (GMT -0600)
Imperial Municipal

Weather History for KIML - August, 2014

Change the Weather History Date:

Wednesday, August 20, 2014

  Actual Average Record
Temperature  
Mean Temperature 79 °F 73 °F  
Max Temperature 92 °F 87 °F 105 °F (1898)
Min Temperature 66 °F 59 °F 47 °F (1908)
Degree Days  
Heating Degree Days 0 0  
Month to date heating degree days 0 0  
Since 1 June heating degree days 40 36  
Cooling Degree Days 14 8  
Month to date cooling degree days 232 202  
Year to date cooling degree days 769 786  
Since 1 June cooling degree days 708 742  
Growing Degree Days 28 (Base 50)    
Moisture  
Dew Point 62 °F    
Average Humidity 59    
Maximum Humidity 87    
Minimum Humidity 30    
Precipitation  
Precipitation 0.06 in 0.07 in 2.22 in (1965)
Sea Level Pressure  
Sea Level Pressure 29.72 in    
Wind  
Wind Speed 5 mph (NNW)    
Max Wind Speed 22 mph    
Max Gust Speed 29 mph    
Visibility 10 miles    
Events Rain , Thunderstorm    
T = Trace of Precipitation, MM = Missing Value Source: NWS Daily Summary

Daily Weather History Graph

Daily Weather History Graph

Search for Another Location

Airport or City:

Trip Planner

Search our weather history database for the weather conditions in past years. The results will help you decide how hot, cold, wet, or windy it might be!

Date:

Astronomy

Aug. 20, 2014 Rise Set
Actual Time 6:02 AM MDT 7:36 PM MDT
Civil Twilight 5:33 AM MDT 8:05 PM MDT
Nautical Twilight 4:58 AM MDT 8:40 PM MDT
Astronomical Twilight 4:21 AM MDT 9:17 PM MDT
Moon 1:43 AM MDT (8/20) 4:23 PM MDT (8/20)
Length of Visible Light 14h 32m
Length of Day
13h 34m
Waning Crescent, 20% of the Moon is Illuminated
Aug 20
Waning Crescent
Aug 25
New
Sep 2
First Quarter
Sep 8
Full
Sep 15
Last Quarter

Hourly Weather History & Observations

Time (MDT) Temp. Heat Index Dew Point Humidity Pressure Visibility Wind Dir Wind Speed Gust Speed Precip Events Conditions
12:53 AM 68.0 °F - 62.1 °F 81% 29.73 in 10.0 mi North 4.6 mph - N/A   Clear
1:53 AM 66.0 °F - 62.1 °F 87% 29.71 in 10.0 mi ESE 4.6 mph - N/A   Clear
2:53 AM 66.9 °F - 62.1 °F 84% 29.68 in 10.0 mi ESE 6.9 mph - N/A   Partly Cloudy
3:53 AM 66.9 °F - 62.1 °F 84% 29.66 in 10.0 mi SSE 3.5 mph - N/A   Clear
4:53 AM 66.0 °F - 62.1 °F 87% 29.66 in 10.0 mi SE 3.5 mph - N/A   Clear
5:53 AM 66.9 °F - 63.0 °F 87% 29.68 in 10.0 mi Calm Calm - N/A   Clear
6:53 AM 66.9 °F - 63.0 °F 87% 29.69 in 10.0 mi Calm Calm - N/A   Clear
7:53 AM 68.0 °F - 62.1 °F 81% 29.71 in 10.0 mi NW 6.9 mph - N/A   Partly Cloudy
8:53 AM 69.1 °F - 63.0 °F 81% 29.73 in 10.0 mi SW 5.8 mph - N/A   Partly Cloudy
9:53 AM 71.1 °F - 63.0 °F 75% 29.74 in 10.0 mi West 5.8 mph - N/A   Partly Cloudy
10:53 AM 77.0 °F - 64.0 °F 64% 29.74 in 10.0 mi NNW 9.2 mph - 0.00 in   Clear
11:53 AM 80.1 °F 81.7 °F 64.0 °F 58% 29.72 in 10.0 mi North 8.1 mph - N/A   Clear
12:53 PM 86.0 °F 85.7 °F 60.1 °F 41% 29.71 in 10.0 mi North 11.5 mph - N/A   Clear
1:53 PM 88.0 °F 87.1 °F 59.0 °F 37% 29.70 in 10.0 mi Variable 5.8 mph - N/A   Clear
2:53 PM 90.0 °F 88.6 °F 57.0 °F 33% 29.68 in 10.0 mi NE 8.1 mph - N/A   Clear
3:53 PM 91.0 °F 89.2 °F 55.9 °F 30% 29.68 in 10.0 mi NNW 5.8 mph - N/A   Clear
4:53 PM 91.9 °F 90.3 °F 55.9 °F 30% 29.67 in 10.0 mi NNE 4.6 mph - N/A   Clear
5:53 PM 88.0 °F 86.5 °F 55.9 °F 34% 29.68 in 10.0 mi WNW 3.5 mph - N/A   Clear
6:53 PM 84.9 °F 85.0 °F 61.0 °F 44% 29.69 in 10.0 mi NW 5.8 mph - N/A   Scattered Clouds
7:53 PM 77.0 °F - 61.0 °F 58% 29.77 in 8.0 mi West 12.7 mph 28.8 mph 0.03 in Rain Light Rain
7:59 PM 75.9 °F - 61.0 °F 60% 29.86 in 10.0 mi WSW 12.7 mph - 0.00 in Rain , Thunderstorm Light Thunderstorms and Rain
8:38 PM 72.0 °F - 66.0 °F 81% 29.82 in 10.0 mi North 8.1 mph - 0.03 in Rain , Thunderstorm Light Rain
8:45 PM 71.1 °F - 66.0 °F 84% 29.82 in 10.0 mi NNE 6.9 mph - 0.03 in Rain Light Rain
8:53 PM 71.1 °F - 64.9 °F 81% 29.75 in 10.0 mi East 8.1 mph - 0.03 in   Partly Cloudy
9:53 PM 69.1 °F - 64.9 °F 87% 29.74 in 10.0 mi Calm Calm - N/A   Clear
10:53 PM 70.0 °F - 64.9 °F 84% 29.74 in 10.0 mi Calm Calm - N/A   Mostly Cloudy
11:53 PM 70.0 °F - 64.0 °F 81% 29.75 in 10.0 mi WNW 9.2 mph - N/A   Mostly Cloudy